"read_dt","SO2 (ppb)","flags","PMT voltage (V)","lamp voltage (V)","lamp intensity (Hz)","internal temp (C)","react chamber temp (C)","sample flow (l/min)","pres (mmHg)","SO2 bkg (ppb)","SO2 coefficient"
2017-04-18 00:00:00,1788E-3,5C000400,-0724,0837,12002,031.4,045.6,0.214,756.4,01.16,0.508
2017-04-18 00:01:00,1682E-3,5C000400,-0724,0838,12080,031.4,045.6,0.214,756.4,01.16,0.508
2017-04-18 00:02:00,1777E-3,5C000400,-0724,0838,11998,031.4,045.5,0.214,756.4,01.16,0.508
2017-04-18 00:03:00,1725E-3,5C000400,-0724,0838,12130,031.4,045.5,0.214,756.4,01.16,0.508
2017-04-18 00:04:00,1584E-3,5C000400,-0724,0838,11915,031.4,045.6,0.214,756.4,01.16,0.508
2017-04-18 00:05:00,1885E-3,5C000400,-0724,0838,12097,031.4,045.6,0.214,756.4,01.16,0.508
2017-04-18 00:06:00,1586E-3,5C000400,-0724,0838,12018,031.4,045.6,0.214,756.4,01.16,0.508
2017-04-18 00:07:00,1646E-3,5C000400,-0724,0837,11888,031.4,045.6,0.214,756.4,01.16,0.508
2017-04-18 00:08:00,1676E-3,5C000400,-0724,0837,12119,031.4,045.6,0.214,756.4,01.16,0.508
2017-04-18 00:09:00,1788E-3,5C000400,-0724,0838,12031,031.4,045.6,0.214,756.4,01.16,0.508
2017-04-18 00:10:00,1785E-3,5C000400,-0724,0838,12105,031.4,045.6,0.214,756.4,01.16,0.508
2017-04-18 00:11:00,1817E-3,5C000400,-0724,0839,12043,031.4,045.6,0.214,756.4,01.16,0.508
2017-04-18 00:12:00,1757E-3,5C000400,-0724,0838,12149,031.4,045.6,0.214,756.3,01.16,0.508
2017-04-18 00:13:00,1759E-3,5C000400,-0724,0838,11916,031.4,045.6,0.214,756.4,01.16,0.508
2017-04-18 00:14:00,1670E-3,5C000400,-0724,0837,11954,031.4,045.6,0.214,756.4,01.16,0.508
2017-04-18 00:15:00,1705E-3,5C000400,-0724,0838,12118,031.4,045.6,0.214,756.3,01.16,0.508
2017-04-18 00:16:00,1689E-3,5C000400,-0724,0837,12027,031.4,045.6,0.214,756.3,01.16,0.508
2017-04-18 00:17:00,1829E-3,5C000400,-0724,0838,12070,031.5,045.5,0.214,756.3,01.16,0.508
2017-04-18 00:18:00,1757E-3,5C000400,-0724,0838,12070,031.4,045.6,0.214,756.3,01.16,0.508
2017-04-18 00:19:00,1668E-3,5C000400,-0724,0838,11968,031.4,045.6,0.214,756.3,01.16,0.508
2017-04-18 00:20:00,1734E-3,5C000400,-0724,0838,12127,031.4,045.5,0.214,756.3,01.16,0.508
2017-04-18 00:21:00,1673E-3,5C000400,-0724,0838,12025,031.4,045.6,0.214,756.3,01.16,0.508
2017-04-18 00:22:00,1859E-3,5C000400,-0724,0838,12058,031.5,045.6,0.214,756.3,01.16,0.508
2017-04-18 00:23:00,1596E-3,5C000400,-0724,0839,12010,031.5,045.6,0.214,756.3,01.16,0.508
2017-04-18 00:24:00,1549E-3,5C000400,-0724,0839,12024,031.5,045.6,0.214,756.3,01.16,0.508
2017-04-18 00:25:00,1687E-3,5C000400,-0724,0838,12051,031.5,045.6,0.214,756.3,01.16,0.508
2017-04-18 00:26:00,1695E-3,5C000400,-0724,0838,12075,031.5,045.5,0.214,756.3,01.16,0.508
2017-04-18 00:27:00,1731E-3,5C000400,-0724,0837,12165,031.5,045.6,0.214,756.3,01.16,0.508
2017-04-18 00:28:00,1618E-3,5C000400,-0724,0838,12036,031.5,045.6,0.214,756.3,01.16,0.508
2017-04-18 00:29:00,1688E-3,5C000400,-0724,0837,12185,031.5,045.6,0.214,756.3,01.16,0.508
2017-04-18 00:30:00,1703E-3,5C000400,-0724,0839,12145,031.5,045.6,0.214,756.3,01.16,0.508
2017-04-18 00:31:00,1586E-3,5C000400,-0724,0838,12004,031.5,045.6,0.214,756.2,01.16,0.508
2017-04-18 00:32:00,1704E-3,5C000400,-0724,0838,12001,031.5,045.6,0.214,756.2,01.16,0.508
2017-04-18 00:33:00,1707E-3,5C000400,-0724,0838,11959,031.5,045.6,0.214,756.2,01.16,0.508
2017-04-18 00:34:00,1564E-3,5C000400,-0724,0839,12032,031.5,045.6,0.214,756.2,01.16,0.508
2017-04-18 00:35:00,1624E-3,5C000400,-0724,0837,12045,031.5,045.6,0.214,756.2,01.16,0.508
2017-04-18 00:36:00,1654E-3,5C000400,-0724,0838,12196,031.5,045.6,0.214,756.2,01.16,0.508
2017-04-18 00:37:00,1686E-3,5C000400,-0724,0838,11968,031.5,045.6,0.214,756.2,01.16,0.508
2017-04-18 00:38:00,1726E-3,5C000400,-0724,0837,12057,031.5,045.6,0.214,756.2,01.16,0.508
2017-04-18 00:39:00,1638E-3,5C000400,-0724,0838,12177,031.6,045.6,0.214,756.2,01.16,0.508
2017-04-18 00:40:00,1638E-3,5C000400,-0724,0838,12004,031.6,045.6,0.214,756.2,01.16,0.508
2017-04-18 00:41:00,1675E-3,5C000400,-0724,0839,12170,031.6,045.6,0.214,756.2,01.16,0.508
2017-04-18 00:42:00,1719E-3,5C000400,-0724,0838,12162,031.6,045.6,0.214,756.3,01.16,0.508
2017-04-18 00:43:00,1645E-3,5C000400,-0724,0838,12166,031.6,045.6,0.214,756.3,01.16,0.508
2017-04-18 00:44:00,1757E-3,5C000400,-0724,0837,12039,031.6,045.6,0.214,756.3,01.16,0.508
2017-04-18 00:45:00,1756E-3,5C000400,-0724,0838,12082,031.6,045.6,0.214,756.2,01.16,0.508
2017-04-18 00:46:00,1755E-3,5C000400,-0724,0838,12008,031.6,045.6,0.214,756.2,01.16,0.508
2017-04-18 00:47:00,1763E-3,5C000400,-0724,0838,12027,031.6,045.6,0.213,756.2,01.16,0.508
2017-04-18 00:48:00,1687E-3,5C000400,-0724,0838,11981,031.6,045.6,0.213,756.2,01.16,0.508
2017-04-18 00:49:00,1583E-3,5C000400,-0724,0838,12039,031.6,045.6,0.213,756.2,01.16,0.508
2017-04-18 00:50:00,1687E-3,5C000400,-0724,0838,12078,031.6,045.6,0.213,756.2,01.16,0.508
2017-04-18 00:51:00,1659E-3,5C000400,-0724,0838,12038,031.6,045.6,0.213,756.2,01.16,0.508
2017-04-18 00:52:00,1786E-3,5C000400,-0724,0838,12007,031.6,045.6,0.213,756.2,01.16,0.508
2017-04-18 00:53:00,1612E-3,5C000400,-0724,0837,12044,031.6,045.6,0.213,756.2,01.16,0.508
2017-04-18 00:54:00,1742E-3,5C000400,-0724,0839,11997,031.6,045.6,0.213,756.2,01.16,0.508
2017-04-18 00:55:00,1683E-3,5C000400,-0724,0838,12095,031.6,045.6,0.213,756.2,01.16,0.508
2017-04-18 00:56:00,1648E-3,5C000400,-0724,0838,11942,031.6,045.6,0.213,756.2,01.16,0.508
2017-04-18 00:57:00,1743E-3,5C000400,-0724,0838,12127,031.6,045.6,0.213,756.3,01.16,0.508
2017-04-18 00:58:00,1765E-3,5C000400,-0724,0838,12179,031.6,045.6,0.213,756.2,01.16,0.508
2017-04-18 00:59:00,1654E-3,5C000400,-0724,0838,12066,031.7,045.6,0.213,756.2,01.16,0.508
2017-04-18 01:00:00,1795E-3,5C000400,-0724,0838,12058,031.7,045.6,0.213,756.2,01.16,0.508
2017-04-18 01:01:00,1615E-3,5C000400,-0724,0838,11965,031.7,045.6,0.213,756.3,01.16,0.508
2017-04-18 01:02:00,1674E-3,5C000400,-0724,0837,11895,031.7,045.6,0.213,756.3,01.16,0.508
2017-04-18 01:03:00,1798E-3,5C000400,-0724,0837,12125,031.7,045.6,0.213,756.3,01.16,0.508
2017-04-18 01:04:00,1682E-3,5C000400,-0724,0838,11983,031.7,045.6,0.213,756.3,01.16,0.508
2017-04-18 01:05:00,1577E-3,5C000400,-0724,0838,12038,031.7,045.6,0.213,756.3,01.16,0.508
2017-04-18 01:06:00,1607E-3,5C000400,-0724,0838,12157,031.7,045.6,0.213,756.3,01.16,0.508
2017-04-18 01:07:00,1705E-3,5C000400,-0724,0838,12127,031.7,045.6,0.213,756.3,01.16,0.508
2017-04-18 01:08:00,1635E-3,5C000400,-0724,0838,12076,031.7,045.6,0.213,756.3,01.16,0.508
2017-04-18 01:09:00,1793E-3,5C000400,-0724,0837,12048,031.7,045.6,0.213,756.3,01.16,0.508
2017-04-18 01:10:00,1668E-3,5C000400,-0724,0838,12057,031.7,045.6,0.213,756.3,01.16,0.508
2017-04-18 01:11:00,1756E-3,5C000400,-0724,0838,12116,031.7,045.6,0.213,756.3,01.16,0.508
2017-04-18 01:12:00,1660E-3,5C000400,-0724,0838,12118,031.8,045.6,0.213,756.3,01.16,0.508
2017-04-18 01:13:00,1761E-3,5C000400,-0724,0838,12089,031.8,045.6,0.213,756.3,01.16,0.508
2017-04-18 01:14:00,1694E-3,5C000400,-0724,0838,12081,031.7,045.6,0.213,756.3,01.16,0.508
2017-04-18 01:15:00,1525E-3,5C000400,-0724,0838,12035,031.8,045.6,0.213,756.3,01.16,0.508
2017-04-18 01:16:00,1596E-3,5C000400,-0724,0838,11938,031.8,045.6,0.213,756.3,01.16,0.508
2017-04-18 01:17:00,1806E-3,5C000400,-0724,0838,11997,031.8,045.6,0.213,756.3,01.16,0.508
2017-04-18 01:18:00,1728E-3,5C000400,-0724,0838,12078,031.8,045.6,0.213,756.3,01.16,0.508
2017-04-18 01:19:00,1594E-3,5C000400,-0724,0838,12116,031.8,045.6,0.213,756.3,01.16,0.508
2017-04-18 01:20:00,1787E-3,5C000400,-0724,0838,12133,031.8,045.6,0.213,756.3,01.16,0.508
2017-04-18 01:21:00,1657E-3,5C000400,-0724,0838,12067,031.8,045.6,0.213,756.3,01.16,0.508
2017-04-18 01:22:00,1616E-3,5C000400,-0724,0838,12128,031.8,045.6,0.213,756.3,01.16,0.508
2017-04-18 01:23:00,1622E-3,5C000400,-0724,0838,12090,031.8,045.6,0.214,756.3,01.16,0.508
2017-04-18 01:24:00,1809E-3,5C000400,-0724,0838,11988,031.8,045.6,0.213,756.3,01.16,0.508
2017-04-18 01:25:00,1849E-3,5C000400,-0724,0838,12073,031.8,045.6,0.213,756.3,01.16,0.508
2017-04-18 01:26:00,1715E-3,5C000400,-0724,0838,12099,031.8,045.6,0.213,756.3,01.16,0.508
2017-04-18 01:27:00,1783E-3,5C000400,-0724,0838,12053,031.8,045.6,0.213,756.3,01.16,0.508
2017-04-18 01:28:00,1735E-3,5C000400,-0724,0838,12036,031.8,045.6,0.213,756.3,01.16,0.508
2017-04-18 01:29:00,1801E-3,5C000400,-0724,0838,12037,031.9,045.6,0.213,756.3,01.16,0.508
2017-04-18 01:30:00,1892E-3,5C000400,-0724,0838,12169,031.9,045.6,0.213,756.3,01.16,0.508
2017-04-18 01:31:00,1709E-3,5C000400,-0724,0838,12004,031.8,045.6,0.213,756.3,01.16,0.508
2017-04-18 01:32:00,1669E-3,5C000400,-0724,0837,12031,031.9,045.6,0.213,756.3,01.16,0.508
2017-04-18 01:33:00,1788E-3,5C000400,-0724,0838,12056,031.9,045.6,0.213,756.3,01.16,0.508
2017-04-18 01:34:00,1702E-3,5C000400,-0724,0839,12068,031.9,045.6,0.213,756.3,01.16,0.508
2017-04-18 01:35:00,1707E-3,5C000400,-0724,0838,12148,031.9,045.6,0.213,756.3,01.16,0.508
2017-04-18 01:36:00,1807E-3,5C000400,-0724,0838,12174,031.9,045.6,0.213,756.3,01.16,0.508
2017-04-18 01:37:00,1662E-3,5C000400,-0724,0838,12073,031.9,045.6,0.214,756.3,01.16,0.508
2017-04-18 01:38:00,1748E-3,5C000400,-0724,0839,12152,031.9,045.6,0.213,756.3,01.16,0.508
2017-04-18 01:39:00,1619E-3,5C000400,-0724,0838,11900,031.9,045.6,0.213,756.3,01.16,0.508
2017-04-18 01:40:00,1867E-3,5C000400,-0724,0838,12014,031.9,045.6,0.213,756.3,01.16,0.508
2017-04-18 01:41:00,1733E-3,5C000400,-0724,0838,12136,031.9,045.6,0.213,756.3,01.16,0.508
2017-04-18 01:42:00,1702E-3,5C000400,-0724,0838,11990,031.9,045.6,0.213,756.3,01.16,0.508
2017-04-18 01:43:00,1639E-3,5C000400,-0724,0837,11939,031.9,045.6,0.213,756.3,01.16,0.508
2017-04-18 01:44:00,1727E-3,5C000400,-0724,0839,12208,031.9,045.6,0.213,756.3,01.16,0.508
2017-04-18 01:45:00,1765E-3,5C000400,-0724,0837,11931,032.0,045.6,0.213,756.3,01.16,0.508
2017-04-18 01:46:00,1612E-3,5C000400,-0724,0839,12168,032.0,045.6,0.213,756.3,01.16,0.508
2017-04-18 01:47:00,1756E-3,5C000400,-0724,0838,11986,032.0,045.6,0.213,756.3,01.16,0.508
2017-04-18 01:48:00,1724E-3,5C000400,-0724,0838,12068,032.0,045.6,0.213,756.3,01.16,0.508
2017-04-18 01:49:00,1779E-3,5C000400,-0724,0838,11935,032.0,045.6,0.213,756.3,01.16,0.508
2017-04-18 01:50:00,1809E-3,5C000400,-0724,0838,12042,032.0,045.6,0.213,756.3,01.16,0.508
2017-04-18 01:51:00,1695E-3,5C000400,-0724,0838,12111,032.0,045.6,0.213,756.3,01.16,0.508
2017-04-18 01:52:00,1691E-3,5C000400,-0724,0838,11769,032.0,045.6,0.213,756.3,01.16,0.508
2017-04-18 01:53:00,1727E-3,5C000400,-0724,0838,11919,032.0,045.6,0.213,756.3,01.16,0.508
2017-04-18 01:54:00,1587E-3,5C000400,-0724,0839,12166,032.0,045.6,0.213,756.3,01.16,0.508
2017-04-18 01:55:00,1785E-3,5C000400,-0724,0838,11978,032.0,045.6,0.213,756.3,01.16,0.508
2017-04-18 01:56:00,1686E-3,5C000400,-0724,0839,12030,032.0,045.6,0.213,756.3,01.16,0.508
2017-04-18 01:57:00,1645E-3,5C000400,-0724,0839,11872,032.0,045.6,0.213,756.3,01.16,0.508
2017-04-18 01:58:00,1667E-3,5C000400,-0724,0838,11871,032.0,045.6,0.213,756.3,01.16,0.508
2017-04-18 01:59:00,1731E-3,5C000400,-0724,0839,12134,032.0,045.6,0.212,756.3,01.16,0.508
2017-04-18 02:00:00,1733E-3,5C000400,-0724,0838,12120,032.1,045.6,0.212,756.3,01.16,0.508
2017-04-18 02:01:00,1637E-3,5C000400,-0724,0839,12190,032.1,045.6,0.213,756.3,01.16,0.508
2017-04-18 02:02:00,1692E-3,5C000400,-0724,0838,12000,032.1,045.6,0.213,756.3,01.16,0.508
2017-04-18 02:03:00,1690E-3,5C000400,-0724,0838,12056,032.1,045.6,0.213,756.3,01.16,0.508
2017-04-18 02:04:00,1691E-3,5C000400,-0724,0838,11997,032.1,045.6,0.213,756.3,01.16,0.508
2017-04-18 02:05:00,1765E-3,5C000400,-0724,0838,12083,032.1,045.6,0.213,756.3,01.16,0.508
2017-04-18 02:06:00,1721E-3,5C000400,-0724,0838,12053,032.1,045.6,0.213,756.3,01.16,0.508
2017-04-18 02:07:00,1861E-3,5C000400,-0724,0838,12073,032.1,045.6,0.213,756.3,01.16,0.508
2017-04-18 02:08:00,1718E-3,5C000400,-0724,0839,11961,032.1,045.6,0.213,756.3,01.16,0.508
2017-04-18 02:09:00,1785E-3,5C000400,-0724,0838,12053,032.1,045.6,0.213,756.3,01.16,0.508
2017-04-18 02:10:00,1726E-3,5C000400,-0724,0838,12085,032.1,045.6,0.213,756.3,01.16,0.508
2017-04-18 02:11:00,1478E-3,5C000400,-0724,0838,12077,032.1,045.6,0.212,756.3,01.16,0.508
2017-04-18 02:12:00,1647E-3,5C000400,-0724,0838,12122,032.2,045.6,0.212,756.3,01.16,0.508
2017-04-18 02:13:00,1682E-3,5C000400,-0724,0838,12043,032.2,045.6,0.212,756.3,01.16,0.508
2017-04-18 02:14:00,1682E-3,5C000400,-0724,0838,12130,032.2,045.6,0.212,756.3,01.16,0.508
2017-04-18 02:15:00,1718E-3,5C000400,-0724,0838,11981,032.2,045.6,0.212,756.3,01.16,0.508
2017-04-18 02:16:00,1712E-3,5C000400,-0724,0838,12032,032.2,045.6,0.213,756.3,01.16,0.508
2017-04-18 02:17:00,1626E-3,5C000400,-0724,0837,11914,032.2,045.6,0.213,756.3,01.16,0.508
2017-04-18 02:18:00,1704E-3,5C000400,-0724,0838,12021,032.2,045.6,0.213,756.3,01.16,0.508
2017-04-18 02:19:00,1749E-3,5C000400,-0724,0838,11974,032.2,045.6,0.212,756.3,01.16,0.508
2017-04-18 02:20:00,1801E-3,5C000400,-0724,0838,12010,032.2,045.6,0.212,756.3,01.16,0.508
2017-04-18 02:21:00,1715E-3,5C000400,-0724,0838,12027,032.2,045.6,0.212,756.2,01.16,0.508
2017-04-18 02:22:00,1782E-3,5C000400,-0724,0838,12005,032.2,045.6,0.212,756.2,01.16,0.508
2017-04-18 02:23:00,1654E-3,5C000400,-0724,0838,11885,032.3,045.6,0.212,756.2,01.16,0.508
2017-04-18 02:24:00,1718E-3,5C000400,-0724,0838,12021,032.2,045.6,0.212,756.3,01.16,0.508
2017-04-18 02:25:00,1808E-3,5C000400,-0724,0838,12048,032.3,045.6,0.212,756.2,01.16,0.508
2017-04-18 02:26:00,1711E-3,5C000400,-0724,0838,11930,032.2,045.6,0.213,756.3,01.16,0.508
2017-04-18 02:27:00,1687E-3,5C000400,-0724,0839,12058,032.3,045.6,0.212,756.3,01.16,0.508
2017-04-18 02:28:00,1786E-3,5C000400,-0724,0838,12053,032.3,045.6,0.212,756.3,01.16,0.508
2017-04-18 02:29:00,1685E-3,5C000400,-0724,0838,11986,032.3,045.6,0.212,756.3,01.16,0.508
2017-04-18 02:30:00,1821E-3,5C000400,-0724,0837,12030,032.3,045.6,0.212,756.3,01.16,0.508
2017-04-18 02:31:00,1690E-3,5C000400,-0724,0837,11933,032.3,045.6,0.212,756.3,01.16,0.508
2017-04-18 02:32:00,1643E-3,5C000400,-0724,0837,12123,032.3,045.6,0.212,756.3,01.16,0.508
2017-04-18 02:33:00,1726E-3,5C000400,-0724,0837,11885,032.3,045.6,0.212,756.3,01.16,0.508
2017-04-18 02:34:00,1686E-3,5C000400,-0724,0838,12019,032.3,045.6,0.213,756.3,01.16,0.508
2017-04-18 02:35:00,1725E-3,5C000400,-0724,0838,11902,032.3,045.6,0.213,756.3,01.16,0.508
2017-04-18 02:36:00,1882E-3,5C000400,-0724,0838,12114,032.3,045.6,0.212,756.3,01.16,0.508
2017-04-18 02:37:00,1636E-3,5C000400,-0724,0838,11973,032.4,045.6,0.212,756.3,01.16,0.508
2017-04-18 02:38:00,1743E-3,5C000400,-0724,0838,12121,032.4,045.6,0.212,756.3,01.16,0.508
2017-04-18 02:39:00,1726E-3,5C000400,-0724,0838,11983,032.4,045.6,0.212,756.3,01.16,0.508
2017-04-18 02:40:00,1748E-3,5C000400,-0724,0838,12044,032.4,045.6,0.212,756.3,01.16,0.508
2017-04-18 02:41:00,1781E-3,5C000400,-0724,0838,12028,032.4,045.6,0.212,756.3,01.16,0.508
2017-04-18 02:42:00,1751E-3,5C000400,-0724,0839,12093,032.4,045.6,0.212,756.3,01.16,0.508
2017-04-18 02:43:00,1664E-3,5C000400,-0724,0838,12018,032.4,045.6,0.212,756.3,01.16,0.508
2017-04-18 02:44:00,1666E-3,5C000400,-0724,0838,12052,032.4,045.6,0.212,756.3,01.16,0.508
2017-04-18 02:45:00,1808E-3,5C000400,-0724,0838,11964,032.4,045.6,0.212,756.3,01.16,0.508
2017-04-18 02:46:00,1719E-3,5C000400,-0724,0838,12146,032.4,045.6,0.212,756.3,01.16,0.508
2017-04-18 02:47:00,1774E-3,5C000400,-0724,0838,11831,032.4,045.6,0.212,756.3,01.16,0.508
2017-04-18 02:48:00,1775E-3,5C000400,-0724,0839,12133,032.4,045.6,0.212,756.3,01.16,0.508
2017-04-18 02:49:00,1770E-3,5C000400,-0724,0839,12129,032.3,045.6,0.212,756.3,01.16,0.508
2017-04-18 02:50:00,1650E-3,5C000400,-0724,0838,12102,032.2,045.6,0.212,756.3,01.16,0.508
2017-04-18 02:51:00,1650E-3,5C000400,-0724,0838,12059,032.0,045.6,0.212,756.3,01.16,0.508
2017-04-18 02:52:00,1698E-3,5C000400,-0724,0838,12050,031.8,045.6,0.212,756.3,01.16,0.508
2017-04-18 02:53:00,1819E-3,5C000400,-0724,0838,12121,031.6,045.6,0.212,756.3,01.16,0.508
2017-04-18 02:54:00,1736E-3,5C000400,-0724,0838,11929,031.4,045.6,0.212,756.4,01.16,0.508
2017-04-18 02:55:00,1748E-3,5C000400,-0724,0837,12083,031.1,045.6,0.213,756.4,01.16,0.508
2017-04-18 02:56:00,1634E-3,5C000400,-0724,0838,12055,030.9,045.5,0.213,756.4,01.16,0.508
2017-04-18 02:57:00,1643E-3,5C000400,-0724,0836,12049,030.8,045.6,0.213,756.3,01.16,0.508
2017-04-18 02:58:00,1639E-3,5C000400,-0724,0837,12131,030.6,045.6,0.213,756.4,01.16,0.508
2017-04-18 02:59:00,1640E-3,5C000400,-0724,0837,12108,030.6,045.5,0.214,756.4,01.16,0.508
2017-04-18 03:00:00,1636E-3,5C000400,-0724,0837,12055,030.5,045.6,0.214,756.4,01.16,0.508
2017-04-18 03:01:00,1835E-3,5C000400,-0724,0837,11861,030.4,045.5,0.214,756.4,01.16,0.508
2017-04-18 03:02:00,1752E-3,5C000400,-0724,0837,11916,030.4,045.5,0.214,756.4,01.16,0.508
2017-04-18 03:03:00,1610E-3,5C000400,-0724,0838,12065,030.4,045.5,0.215,756.4,01.16,0.508
2017-04-18 03:04:00,1721E-3,5C000400,-0724,0837,12121,030.5,045.6,0.215,756.3,01.16,0.508
2017-04-18 03:05:00,1710E-3,5C000400,-0724,0838,11982,030.5,045.6,0.215,756.3,01.16,0.508
2017-04-18 03:06:00,1792E-3,5C000400,-0724,0837,12137,030.6,045.5,0.215,756.3,01.16,0.508
2017-04-18 03:07:00,1675E-3,5C000400,-0724,0837,12087,030.7,045.6,0.215,756.3,01.16,0.508
2017-04-18 03:08:00,1781E-3,5C000400,-0724,0838,12048,030.7,045.6,0.215,756.3,01.16,0.508
2017-04-18 03:09:00,1774E-3,5C000400,-0724,0837,12151,030.8,045.5,0.215,756.3,01.16,0.508
2017-04-18 03:10:00,1691E-3,5C000400,-0724,0838,12148,030.9,045.5,0.216,756.3,01.16,0.508
2017-04-18 03:11:00,1833E-3,5C000400,-0724,0838,11948,030.9,045.5,0.215,756.4,01.16,0.508
2017-04-18 03:12:00,1813E-3,5C000400,-0724,0838,12115,031.0,045.6,0.215,756.4,01.16,0.508
2017-04-18 03:13:00,1823E-3,5C000400,-0724,0838,11931,031.0,045.6,0.215,756.3,01.16,0.508
2017-04-18 03:14:00,1718E-3,5C000400,-0724,0838,12070,031.1,045.6,0.215,756.3,01.16,0.508
2017-04-18 03:15:00,1668E-3,5C000400,-0724,0838,12175,031.1,045.6,0.215,756.3,01.16,0.508
2017-04-18 03:16:00,1654E-3,5C000400,-0724,0838,12066,031.2,045.6,0.215,756.4,01.16,0.508
2017-04-18 03:17:00,1699E-3,5C000400,-0724,0838,12150,031.2,045.6,0.215,756.3,01.16,0.508
2017-04-18 03:18:00,1745E-3,5C000400,-0724,0837,11884,031.3,045.6,0.215,756.4,01.16,0.508
2017-04-18 03:19:00,1677E-3,5C000400,-0724,0838,12081,031.3,045.6,0.215,756.4,01.16,0.508
2017-04-18 03:20:00,1729E-3,5C000400,-0724,0838,12122,031.4,045.6,0.215,756.4,01.16,0.508
2017-04-18 03:21:00,1665E-3,5C000400,-0724,0838,12136,031.4,045.6,0.215,756.3,01.16,0.508
2017-04-18 03:22:00,1683E-3,5C000400,-0724,0838,11923,031.4,045.6,0.215,756.3,01.16,0.508
2017-04-18 03:23:00,1617E-3,5C000400,-0724,0839,12009,031.5,045.6,0.215,756.3,01.16,0.508
2017-04-18 03:24:00,1682E-3,5C000400,-0724,0838,12032,031.5,045.6,0.214,756.3,01.16,0.508
2017-04-18 03:25:00,1897E-3,5C000400,-0724,0838,12132,031.6,045.6,0.214,756.3,01.16,0.508
2017-04-18 03:26:00,1679E-3,5C000400,-0724,0838,12049,031.6,045.6,0.214,756.3,01.16,0.508
2017-04-18 03:27:00,1687E-3,5C000400,-0724,0838,12028,031.6,045.6,0.214,756.3,01.16,0.508
2017-04-18 03:28:00,1730E-3,5C000400,-0724,0837,11987,031.7,045.6,0.214,756.3,01.16,0.508
2017-04-18 03:29:00,1691E-3,5C000400,-0724,0838,11932,031.7,045.6,0.214,756.3,01.16,0.508
2017-04-18 03:30:00,1661E-3,5C000400,-0724,0838,12020,031.8,045.6,0.214,756.3,01.16,0.508
2017-04-18 03:31:00,1708E-3,5C000400,-0724,0838,11993,031.8,045.6,0.214,756.3,01.16,0.508
2017-04-18 03:32:00,1752E-3,5C000400,-0724,0838,12134,031.8,045.6,0.214,756.3,01.16,0.508
2017-04-18 03:33:00,1769E-3,5C000400,-0724,0837,11983,031.9,045.6,0.214,756.3,01.16,0.508
2017-04-18 03:34:00,1835E-3,5C000400,-0724,0838,12015,031.9,045.6,0.214,756.3,01.16,0.508
2017-04-18 03:35:00,1738E-3,5C000400,-0724,0837,11951,031.9,045.6,0.214,756.3,01.16,0.508
2017-04-18 03:36:00,1670E-3,5C000400,-0724,0838,12038,032.0,045.6,0.214,756.3,01.16,0.508
2017-04-18 03:37:00,1645E-3,5C000400,-0724,0838,11993,032.0,045.6,0.214,756.3,01.16,0.508
2017-04-18 03:38:00,1860E-3,5C000400,-0724,0838,11967,032.0,045.6,0.213,756.3,01.16,0.508
2017-04-18 03:39:00,1677E-3,5C000400,-0724,0838,12049,032.0,045.6,0.213,756.3,01.16,0.508
2017-04-18 03:40:00,1754E-3,5C000400,-0724,0838,11939,031.9,045.6,0.213,756.3,01.16,0.508
2017-04-18 03:41:00,1804E-3,5C000400,-0724,0838,11928,031.8,045.6,0.213,756.4,01.16,0.508
2017-04-18 03:42:00,1661E-3,5C000400,-0724,0838,12026,031.7,045.6,0.213,756.4,01.16,0.508
2017-04-18 03:43:00,1699E-3,5C000400,-0724,0838,12053,031.5,045.6,0.213,756.4,01.16,0.508
2017-04-18 03:44:00,1677E-3,5C000400,-0724,0837,12025,031.3,045.5,0.213,756.4,01.16,0.508
2017-04-18 03:45:00,1603E-3,5C000400,-0724,0837,12042,031.0,045.5,0.213,756.4,01.16,0.508
2017-04-18 03:46:00,1627E-3,5C000400,-0724,0837,12064,030.8,045.5,0.214,756.4,01.16,0.508
2017-04-18 03:47:00,1765E-3,5C000400,-0724,0837,11935,030.6,045.5,0.214,756.4,01.16,0.508
2017-04-18 03:48:00,1767E-3,5C000400,-0724,0838,12017,030.4,045.5,0.214,756.4,01.16,0.508
2017-04-18 03:49:00,1716E-3,5C000400,-0724,0837,12026,030.3,045.5,0.214,756.4,01.16,0.508
2017-04-18 03:50:00,1762E-3,5C000400,-0724,0837,12129,030.1,045.5,0.215,756.4,01.16,0.508
2017-04-18 03:51:00,1774E-3,5C000400,-0724,0837,11978,030.1,045.5,0.215,756.4,01.16,0.508
2017-04-18 03:52:00,1749E-3,5C000400,-0724,0838,12030,030.0,045.5,0.215,756.4,01.16,0.508
2017-04-18 03:53:00,1783E-3,5C000400,-0724,0837,12014,030.0,045.5,0.215,756.5,01.16,0.508
2017-04-18 03:54:00,1729E-3,5C000400,-0724,0837,12024,030.0,045.5,0.216,756.5,01.16,0.508
2017-04-18 03:55:00,1670E-3,5C000400,-0724,0837,12060,030.1,045.5,0.216,756.5,01.16,0.508
2017-04-18 03:56:00,1693E-3,5C000400,-0724,0837,12112,030.2,045.5,0.216,756.5,01.16,0.508
2017-04-18 03:57:00,1685E-3,5C000400,-0724,0837,12154,030.3,045.6,0.216,756.4,01.16,0.508
2017-04-18 03:58:00,1792E-3,5C000400,-0724,0837,12074,030.3,045.5,0.216,756.4,01.16,0.508
2017-04-18 03:59:00,1869E-3,5C000400,-0724,0838,12091,030.4,045.5,0.216,756.4,01.16,0.508
2017-04-18 04:00:00,1682E-3,5C000400,-0724,0837,12095,030.5,045.5,0.216,756.4,01.16,0.508
2017-04-18 04:01:00,1750E-3,5C000400,-0724,0838,12054,030.6,045.6,0.216,756.4,01.16,0.508
2017-04-18 04:02:00,1803E-3,5C000400,-0724,0837,12152,030.6,045.5,0.216,756.4,01.16,0.508
2017-04-18 04:03:00,1757E-3,5C000400,-0724,0838,11999,030.7,045.6,0.216,756.4,01.16,0.508
2017-04-18 04:04:00,1680E-3,5C000400,-0724,0838,12073,030.8,045.5,0.216,756.3,01.16,0.508
2017-04-18 04:05:00,1683E-3,5C000400,-0724,0838,11951,030.9,045.6,0.216,756.3,01.16,0.508
2017-04-18 04:06:00,1670E-3,5C000400,-0724,0838,11876,030.9,045.6,0.216,756.4,01.16,0.508
2017-04-18 04:07:00,1750E-3,5C000400,-0724,0838,12133,031.0,045.6,0.215,756.4,01.16,0.508
2017-04-18 04:08:00,1754E-3,5C000400,-0724,0837,12036,031.1,045.6,0.216,756.3,01.16,0.508
2017-04-18 04:09:00,1861E-3,5C000400,-0724,0838,12086,031.1,045.6,0.216,756.4,01.16,0.508
2017-04-18 04:10:00,1675E-3,5C000400,-0724,0837,12070,031.2,045.6,0.215,756.3,01.16,0.508
2017-04-18 04:11:00,1643E-3,5C000400,-0724,0838,12134,031.2,045.6,0.215,756.4,01.16,0.508
2017-04-18 04:12:00,1550E-3,5C000400,-0724,0838,12026,031.3,045.6,0.215,756.3,01.16,0.508
2017-04-18 04:13:00,1713E-3,5C000400,-0724,0838,12203,031.3,045.6,0.215,756.4,01.16,0.508
2017-04-18 04:14:00,1767E-3,5C000400,-0724,0837,12121,031.4,045.6,0.215,756.3,01.16,0.508
2017-04-18 04:15:00,1675E-3,5C000400,-0724,0838,12042,031.5,045.6,0.214,756.3,01.16,0.508
2017-04-18 04:16:00,1778E-3,5C000400,-0724,0838,12033,031.5,045.6,0.214,756.3,01.16,0.508
2017-04-18 04:17:00,1681E-3,5C000400,-0724,0838,11976,031.6,045.6,0.214,756.3,01.16,0.508
2017-04-18 04:18:00,1744E-3,5C000400,-0724,0838,12117,031.6,045.6,0.214,756.3,01.16,0.508
2017-04-18 04:19:00,1689E-3,5C000400,-0724,0838,12170,031.5,045.6,0.214,756.3,01.16,0.508
2017-04-18 04:20:00,1714E-3,5C000400,-0724,0838,12084,031.5,045.6,0.214,756.3,01.16,0.508